GFSNW_700_rhum_009.txt.gz
RH
91 81 70 18 23 87 96 98 99 94 94 98 98 97 92 77 67 62 62 61 64 79 91 100 99 85 61 60 62 73 79 100 96 80 72 74 73 78 82 96 87 94 80 66
88 78 15 14 23 71 93 100 83 98 98 99 98 97 84 75 66 61 59 56 71 75 80 88 92 87 78 77 75 82 80 98 97 85 84 95 98 91 94 93 94 93 84 62
85 5 6 17 39 91 96 96 98 96 98 93 88 98 86 82 78 72 67 64 62 72 96 99 95 85 89 92 81 86 92 94 84 77 76 98 97 96 97 97 96 82 83 74
82 1 19 41 90 96 97 98 99 90 98 97 91 90 90 85 81 74 73 82 94 81 91 100 88 87 96 94 86 96 98 99 97 84 93 98 97 97 96 97 81 94 63 75
26 1 66 98 100 97 98 98 99 96 94 100 94 95 86 73 72 71 85 91 98 97 99 94 89 93 83 79 84 96 100 98 99 96 92 98 98 99 98 98 96 98 90 79
18 2 44 98 95 95 100 99 96 89 95 95 87 81 75 72 74 89 94 94 94 98 99 98 88 98 84 97 99 99 99 100 98 94 96 98 98 95 99 99 99 89 95 52
15 3 40 99 96 92 97 94 96 90 86 80 74 88 81 84 82 87 97 97 96 97 97 94 80 83 91 97 95 98 100 100 99 97 96 98 98 100 98 100 92 91 71 52
15 7 11 95 96 98 98 98 98 98 96 93 88 84 81 82 84 86 90 99 97 98 93 84 90 83 87 66 65 77 84 99 98 98 98 94 92 100 99 73 65 67 51 66
21 8 8 86 95 98 97 99 98 100 94 80 81 77 80 87 88 97 93 97 97 100 97 85 98 89 80 81 88 83 81 100 100 99 99 96 75 94 85 90 77 86 57 54
29 21 8 59 96 85 95 97 98 98 100 84 79 81 81 82 94 99 95 98 93 90 86 96 99 90 88 84 80 92 99 95 97 98 97 82 75 75 87 72 67 73 61 60
30 28 15 27 97 100 100 96 97 98 99 92 81 87 75 75 84 86 99 99 97 91 100 99 98 97 80 82 81 75 78 85 82 97 99 78 72 68 69 62 59 69 59 53
61 38 28 15 86 98 100 100 100 100 97 95 90 80 89 89 96 97 100 99 97 94 98 99 100 97 99 94 83 75 77 74 76 78 68 73 72 69 62 58 58 58 66 59
27 60 32 18 55 100 94 100 99 99 98 100 98 85 84 89 97 96 100 90 99 98 98 98 98 99 92 92 82 80 72 77 75 78 73 67 71 73 60 60 56 59 67 66
6 8 35 21 31 96 100 100 100 98 98 99 83 86 86 91 95 92 94 93 100 99 98 99 98 100 93 91 86 85 83 78 74 73 76 74 67 70 61 58 57 62 63 68
12 14 9 21 21 79 100 100 100 98 100 98 93 85 80 93 98 91 90 89 89 99 99 99 98 95 91 85 92 72 69 66 69 75 74 80 72 69 63 64 62 57 62 66
14 16 18 10 18 58 98 98 99 99 96 99 92 95 90 92 92 89 88 90 94 99 100 99 98 96 98 98 85 63 60 63 65 70 77 79 77 72 67 68 65 64 62 62
17 25 29 23 14 48 94 97 97 99 99 93 94 85 86 84 83 85 79 95 98 100 99 98 98 99 100 94 75 62 63 70 72 73 74 76 74 72 69 68 68 68 70 66
22 46 42 33 12 39 95 98 99 97 99 99 90 88 76 66 74 74 84 100 100 100 99 100 99 100 100 96 75 72 68 68 73 70 73 74 74 73 68 68 72 72 73 70
38 56 46 30 12 44 93 98 97 97 99 94 88 89 78 63 93 100 100 100 100 100 100 100 96 98 97 69 71 67 65 68 74 77 76 76 76 75 72 71 72 73 75 72
75 62 49 68 14 57 97 99 98 97 99 99 94 83 78 74 78 99 100 100 100 98 99 100 100 70 56 63 72 68 71 71 70 72 70 72 75 72 74 76 75 76 83 75
65 85 87 71 25 82 97 98 97 98 99 89 86 77 87 81 76 98 94 92 99 100 93 93 88 56 58 54 58 65 58 58 61 75 90 89 96 77 75 87 75 77 80 83
78 88 96 58 65 95 96 97 99 99 88 97 77 73 81 81 80 86 94 93 86 89 82 81 62 44 38 56 57 55 47 47 52 70 78 79 82 64 67 69 72 77 85 90
89 89 79 89 96 96 97 98 100 98 82 73 66 67 91 99 95 93 88 94 86 86 80 65 46 46 46 45 53 57 46 38 41 45 53 58 62 64 75 80 80 85 92 94
72 92 85 96 94 96 95 95 98 98 85 83 87 89 100 100 97 86 82 85 79 75 69 41 37 32 33 47 50 49 54 47 49 49 49 53 59 71 77 86 89 92 94 99
68 78 88 90 89 91 90 95 94 93 86 80 91 100 100 100 91 91 81 80 75 65 48 37 27 27 26 30 38 46 46 48 55 62 63 62 64 73 81 85 95 98 99 98
46 68 82 84 92 93 88 84 96 86 76 75 100 99 99 97 84 90 70 71 50 41 35 34 35 37 36 32 25 31 45 48 51 62 74 77 75 76 86 89 94 98 98 93
36 52 64 66 66 70 82 87 89 97 100 100 100 97 94 92 92 85 69 48 42 39 34 41 39 38 38 38 37 28 25 44 52 62 76 86 88 87 93 96 97 97 90 87

GFSNW_700_rhum_012.txt.gz
RH
89 13 12 17 19 63 94 97 98 94 94 97 97 98 88 73 80 68 61 63 55 62 69 84 97 93 70 57 62 78 82 99 97 96 76 81 86 89 98 97 81 97 83 64
25 10 18 27 47 63 90 97 98 99 90 94 95 97 90 76 69 65 61 60 61 63 58 77 90 83 74 67 64 73 91 96 99 76 79 82 100 75 92 98 98 93 86 54
8 13 70 89 96 92 95 98 98 93 86 97 80 95 89 76 70 66 59 57 58 60 69 76 92 84 81 77 78 90 92 100 87 70 64 81 98 97 97 97 98 78 83 70
6 18 83 87 90 97 92 89 94 96 100 90 95 92 85 74 68 66 66 65 65 66 74 92 88 86 89 90 86 84 98 100 95 78 88 98 100 99 99 98 84 95 64 70
5 35 79 78 80 94 93 98 90 71 72 84 88 92 88 85 75 75 69 70 81 91 95 90 94 88 91 89 90 99 100 99 91 91 96 99 99 97 100 100 99 99 98 94
6 23 67 77 69 80 86 99 98 96 97 88 80 76 83 83 78 90 94 88 87 94 95 98 95 99 99 98 100 94 94 92 98 94 97 98 98 99 100 96 97 99 99 60
5 7 52 73 69 76 81 92 90 79 77 82 84 82 81 79 81 88 90 90 87 98 94 91 88 80 90 99 100 100 88 96 99 97 96 96 99 100 100 96 90 100 87 66
4 6 23 67 78 84 92 94 97 93 92 82 86 88 90 86 86 87 81 90 96 95 91 94 91 98 93 79 80 85 96 100 98 98 98 87 98 97 99 99 95 88 67 72
1 4 5 47 82 96 100 99 89 90 88 72 75 73 82 79 78 83 83 92 95 96 97 90 98 92 82 82 82 91 100 99 100 99 98 91 97 92 98 99 86 79 72 75
1 2 4 22 71 94 98 100 89 98 92 82 77 66 70 76 79 86 85 97 97 98 98 93 99 97 82 83 91 92 98 99 99 99 98 87 90 87 82 78 74 73 62 70
1 1 4 6 53 89 99 100 97 100 100 75 73 78 82 75 79 82 89 97 92 97 99 98 94 96 87 83 78 78 85 97 92 92 93 83 74 68 70 64 61 66 76 77
2 1 2 7 12 82 100 100 93 99 100 91 73 76 80 84 84 98 99 93 89 93 98 98 100 97 92 90 88 78 87 77 85 79 73 64 67 69 60 62 60 70 72 75
3 3 2 6 11 44 97 100 99 100 98 87 88 88 85 82 91 100 98 97 100 97 99 99 99 97 99 99 84 86 80 78 79 79 76 76 65 65 60 61 62 60 70 65
4 7 9 11 15 14 82 99 99 97 99 98 99 100 100 96 98 100 97 100 100 100 100 100 100 100 96 95 98 93 89 85 79 73 79 75 68 63 62 61 60 66 69 68
5 10 20 24 14 14 60 94 98 99 98 98 98 92 90 87 89 93 96 100 100 96 100 98 99 96 93 98 92 77 70 72 68 79 70 79 76 66 65 66 58 61 68 68
11 26 26 39 28 11 48 94 98 90 99 100 100 98 94 92 90 100 97 100 100 99 93 98 98 96 99 97 97 63 58 68 65 73 72 79 79 73 70 69 64 60 59 64
22 27 26 51 36 11 64 96 90 98 99 97 95 97 91 90 86 92 91 95 100 95 99 91 100 98 99 98 94 67 68 64 62 72 74 77 78 75 71 70 69 68 65 65
21 45 65 48 32 13 79 96 96 98 98 95 100 99 89 84 87 92 95 94 98 96 99 99 99 99 99 91 52 64 74 73 70 70 74 75 78 76 72 71 73 73 73 69
62 74 56 34 19 22 83 96 97 98 98 97 84 98 94 75 96 97 99 94 99 96 99 100 99 98 87 71 70 69 70 69 68 68 77 76 78 77 75 73 74 74 75 72
42 57 69 69 18 36 90 97 98 97 99 93 94 72 83 77 76 98 96 98 98 100 99 100 98 86 63 64 75 73 70 75 73 72 78 78 75 76 76 76 76 76 76 74
73 88 96 44 37 93 96 96 97 96 97 97 97 90 81 77 78 90 95 93 93 100 100 98 94 61 58 63 58 60 65 63 70 73 75 77 87 80 75 79 79 91 86 89
70 50 48 84 96 95 96 97 98 97 95 99 76 79 88 85 82 80 91 94 88 98 89 87 68 47 47 45 57 59 50 59 60 73 83 86 86 86 83 86 86 85 84 84
66 67 77 95 91 92 92 95 99 100 89 72 72 85 99 94 95 91 81 91 91 80 79 65 49 47 41 46 51 57 52 49 47 63 79 80 86 85 72 77 80 82 83 87
63 68 80 87 82 84 87 87 96 92 99 96 99 100 97 99 99 98 94 82 75 78 68 40 42 35 31 33 50 52 56 48 41 45 48 59 68 71 65 72 81 82 86 96
60 62 67 76 79 83 83 90 98 98 94 94 100 98 98 98 97 90 79 81 75 59 46 44 32 34 31 29 40 49 50 55 50 50 51 50 53 66 72 76 84 89 97 97
46 55 68 74 80 84 82 91 94 92 100 100 100 99 95 96 87 93 77 69 50 50 42 34 37 39 39 38 32 29 45 50 53 64 68 66 64 66 77 83 87 95 97 98
19 43 60 75 73 70 75 81 87 90 88 98 98 96 96 96 95 92 74 68 53 52 48 40 42 41 40 37 37 37 27 33 50 55 69 78 77 75 81 88 90 95 99 98

GFSNW_700_rhum_018.txt.gz
RH
14 64 86 95 97 94 97 92 88 91 98 86 91 89 98 98 98 90 95 88 82 88 90 90 91 84 86 87 99 98 95 87 96 80 71 71 89 88 84 90 75 79 74 73
17 62 81 92 98 81 80 54 87 94 96 98 83 98 90 92 82 87 84 82 81 82 85 84 83 91 85 89 91 96 92 92 98 90 87 84 84 78 84 92 93 95 95 68
10 56 71 82 76 67 74 66 85 62 78 91 90 97 97 96 87 80 58 68 80 85 86 86 88 88 84 70 82 95 92 93 77 77 75 80 93 87 84 94 98 88 88 80
2 42 60 64 75 57 54 64 74 61 53 58 92 94 97 93 86 65 61 78 80 86 88 89 92 97 81 78 71 90 98 99 88 78 66 70 76 71 80 98 92 100 90 99
0 25 53 55 66 59 40 42 41 46 52 81 80 87 94 90 75 86 76 89 91 80 86 96 89 96 96 91 96 91 93 93 96 82 76 78 88 81 91 99 99 99 94 96
2 3 38 51 55 66 69 51 51 61 52 68 86 90 94 90 77 73 68 83 73 97 95 88 90 94 97 97 93 90 97 90 88 91 74 82 89 88 94 99 99 99 99 98
11 2 6 41 49 56 69 64 64 63 81 89 89 94 84 79 82 73 81 92 99 95 86 87 82 81 79 98 98 93 97 87 98 93 78 92 88 78 94 97 81 95 98 99
14 10 2 3 42 52 61 77 76 77 92 100 98 92 76 87 82 74 76 81 84 82 82 77 92 93 97 88 97 99 98 100 98 98 99 70 89 92 97 95 85 98 89 99
17 13 9 2 2 38 52 71 92 92 99 84 100 96 94 74 75 74 70 77 74 85 83 84 90 86 95 99 93 100 100 100 99 98 99 89 85 87 82 89 84 83 84 80
20 15 12 5 2 1 36 56 77 100 96 99 100 100 100 99 100 99 97 82 82 92 87 85 93 87 83 83 96 96 99 100 99 99 98 79 65 76 78 88 70 72 75 78
20 16 12 9 2 2 2 57 78 96 100 100 93 100 100 100 89 99 94 87 88 88 93 95 91 90 96 87 88 89 86 95 96 100 97 89 79 78 79 72 72 70 77 81
22 15 11 7 4 3 5 16 94 100 100 94 92 96 79 87 91 89 100 91 94 90 89 90 91 92 90 90 93 87 84 85 95 81 75 79 80 77 75 69 69 68 74 80
22 16 10 7 8 13 10 5 37 98 98 97 98 99 92 87 82 92 100 93 84 90 92 92 98 95 94 96 91 92 94 87 86 82 79 80 77 84 70 66 65 66 73 78
21 14 10 8 10 29 30 30 15 82 97 96 98 100 94 88 94 84 89 86 93 92 100 99 99 94 94 89 97 96 93 98 94 81 77 82 79 71 73 66 65 73 75 73
18 13 11 35 20 20 29 28 32 52 96 97 98 99 90 93 92 90 92 93 100 99 98 99 99 87 99 83 86 77 75 78 85 80 89 80 70 71 75 67 65 70 73 72
16 12 57 43 61 31 13 38 27 44 97 97 98 98 90 93 100 92 97 98 94 100 99 99 100 93 98 99 95 71 79 70 70 72 67 68 70 72 77 72 67 67 71 67
13 52 52 34 77 86 65 57 94 80 96 98 98 98 99 99 100 93 82 85 99 100 100 100 98 99 99 97 90 66 82 99 91 89 72 65 68 69 77 75 70 66 68 71
27 60 68 73 66 57 42 42 95 96 97 98 98 100 99 98 98 98 87 92 96 96 99 99 92 97 100 91 73 89 71 76 80 74 80 73 63 65 75 77 82 69 69 68
40 44 76 51 36 17 33 95 96 96 97 98 100 98 99 91 100 100 98 99 100 100 99 99 96 99 98 83 92 89 99 91 81 76 78 77 71 68 72 80 92 79 76 75
21 22 35 11 15 93 96 96 96 96 98 100 100 100 97 93 99 99 99 100 97 97 95 100 94 73 92 97 90 80 76 84 87 82 80 77 71 73 76 83 87 94 97 86
40 29 31 50 77 94 96 97 97 97 97 91 93 98 96 96 92 96 95 93 97 100 92 89 96 79 88 80 67 56 66 67 78 77 79 85 83 78 84 84 85 95 88 94
78 90 97 97 99 98 96 97 95 97 99 99 96 81 88 85 91 86 90 85 84 88 85 81 73 83 74 52 39 39 71 87 71 75 70 83 89 96 93 84 84 86 98 93
67 83 88 90 88 98 100 100 96 100 100 99 90 88 86 90 88 87 79 80 94 75 81 75 79 65 43 41 39 49 61 96 89 61 69 74 95 99 98 99 96 97 98 97
49 64 68 81 74 76 82 89 91 97 100 100 100 100 96 94 93 89 86 85 80 80 86 72 68 43 48 46 43 58 69 87 80 75 73 81 88 99 98 96 98 98 99 94
29 58 64 66 68 73 76 77 88 94 100 100 100 99 97 92 90 81 82 82 78 70 71 75 60 51 56 53 49 44 71 89 89 69 74 81 81 82 91 95 89 93 94 94
14 50 58 62 68 75 80 85 92 99 100 99 99 94 91 96 86 89 80 78 64 71 70 64 52 50 55 52 51 52 44 58 86 87 70 69 69 66 70 78 82 81 82 89
12 22 37 59 74 77 75 79 84 93 99 98 93 99 95 95 92 84 81 74 60 64 65 62 58 57 53 50 46 46 48 47 40 52 67 71 71 72 73 68 72 78 85 89

GFSNW_700_rhum_024.txt.gz
RH
24 31 35 37 34 37 41 42 52 58 76 90 96 98 100 96 94 77 79 77 70 75 83 74 77 77 81 79 79 83 87 82 85 70 77 85 87 82 74 70 72 92 92 73
30 28 35 41 40 39 37 37 46 65 67 73 81 89 92 95 90 84 87 87 78 78 81 75 82 90 86 83 88 83 86 82 83 84 81 79 88 77 88 85 83 92 89 66
15 27 33 42 50 44 45 40 57 75 72 70 73 75 76 77 82 82 65 70 78 83 90 82 93 92 91 95 95 88 81 80 73 80 84 87 89 82 84 87 94 87 82 64
11 20 30 31 43 47 47 48 51 60 77 75 71 68 65 74 87 83 83 80 84 87 84 87 91 91 86 95 94 90 92 84 85 81 81 86 80 81 83 88 79 96 67 80
17 10 11 38 41 34 38 38 52 51 68 71 73 69 63 64 72 69 84 84 84 86 86 78 81 82 83 86 97 97 96 92 87 73 80 79 79 75 79 78 78 86 84 81
23 18 13 3 24 41 46 45 43 56 59 66 69 71 63 62 65 72 82 82 81 82 77 78 78 80 75 78 72 84 92 92 88 79 84 80 79 70 74 79 85 89 92 76
24 23 20 15 6 7 38 51 52 51 63 69 77 76 79 75 74 67 65 69 74 81 83 90 93 94 97 97 98 94 82 84 81 84 79 92 81 73 84 86 84 84 77 80
24 25 25 21 18 14 4 21 54 58 57 73 84 86 88 80 77 70 77 82 75 86 87 91 92 98 98 98 99 98 92 96 93 99 100 72 62 74 80 88 68 71 80 79
23 25 26 26 23 20 17 12 3 37 60 67 83 88 96 92 76 78 74 77 84 84 83 86 89 83 85 88 96 100 96 97 99 99 98 95 80 72 83 90 74 76 80 75
21 23 26 27 26 24 22 19 13 6 4 58 82 94 94 92 91 82 75 73 74 78 85 85 86 81 91 97 92 96 99 99 99 99 96 72 64 87 89 83 82 85 71 72
23 22 22 26 29 28 25 22 16 11 7 7 87 98 100 95 90 95 84 78 76 80 90 92 84 86 91 94 94 90 90 99 96 100 99 84 80 87 91 88 84 76 69 72
25 24 21 22 27 28 27 23 16 13 10 8 20 99 100 93 99 98 90 93 88 86 87 85 85 87 95 92 90 93 97 84 83 77 72 76 87 88 86 90 79 73 68 70
29 26 23 22 26 26 21 22 29 30 21 13 14 30 100 99 96 98 97 94 97 94 87 89 89 86 85 84 79 86 100 99 98 96 72 81 90 84 88 90 75 74 69 73
31 29 23 24 24 26 52 55 50 68 50 30 18 20 98 96 98 92 98 98 97 98 92 93 95 96 86 84 79 81 81 92 93 95 76 78 87 90 92 78 81 74 69 79
45 26 23 23 33 55 61 83 97 100 89 37 27 63 68 96 95 98 94 97 97 99 100 98 96 97 98 92 96 70 74 81 90 81 76 96 93 92 81 77 82 78 69 74
35 23 24 37 41 61 58 77 91 73 30 28 27 56 94 97 98 98 98 98 92 98 98 90 92 97 97 96 98 80 93 97 92 93 95 76 74 86 79 73 76 82 70 74
24 24 30 14 30 46 54 83 83 90 65 76 89 96 98 98 98 97 96 98 98 98 97 98 98 99 99 99 95 100 100 99 100 88 98 87 77 75 76 71 72 80 74 74
24 27 19 38 33 25 29 52 74 90 94 96 94 96 98 98 97 99 98 98 97 95 97 97 99 99 98 94 96 99 95 98 98 100 97 100 93 82 79 75 73 77 86 83
25 34 46 70 80 82 80 79 78 93 95 96 96 98 98 97 95 99 97 98 99 97 98 99 99 98 96 88 88 85 91 84 86 98 94 99 99 85 78 71 74 79 88 92
32 54 73 92 96 100 91 95 95 95 96 97 98 98 100 99 98 99 98 97 96 100 100 97 99 98 100 100 97 81 70 73 55 79 85 92 81 82 81 81 80 79 91 92
36 65 87 89 93 94 100 100 100 98 98 97 98 97 99 99 98 97 98 97 98 92 94 99 100 98 100 100 97 62 47 45 66 88 90 92 92 93 91 89 88 91 96 96
29 56 81 85 86 88 96 100 100 100 99 97 98 98 99 97 97 98 93 90 87 91 98 100 97 99 89 63 54 49 55 48 72 88 91 94 88 94 94 93 97 97 98 98
26 39 70 80 87 91 100 99 100 100 99 100 100 100 97 98 94 85 82 96 99 95 100 100 94 77 57 65 59 57 66 76 92 100 94 91 97 99 98 96 100 100 99 98
29 29 74 73 78 77 93 100 99 99 98 98 100 99 100 100 94 93 89 99 98 100 100 96 79 58 66 67 61 58 77 90 96 99 99 97 98 97 86 99 100 100 99 98
31 27 54 64 67 67 68 70 94 100 99 99 98 99 99 99 96 88 93 94 100 91 75 74 79 57 64 63 58 54 53 51 52 72 98 98 89 96 95 98 99 99 99 98
81 36 31 50 59 61 64 74 85 99 98 99 96 98 95 95 89 99 95 96 69 60 62 76 71 60 65 67 63 59 55 52 50 51 72 86 89 95 96 95 98 98 98 99
93 66 33 23 20 25 67 82 100 100 97 97 98 98 92 96 99 100 97 75 58 58 70 70 69 71 70 69 70 70 66 64 61 55 51 48 47 59 74 86 92 95 96 98

GFSNW_700_rhum_030.txt.gz
RH
17 19 29 36 42 51 55 61 67 79 84 79 88 98 100 89 85 76 68 66 67 73 84 80 75 85 73 78 79 85 75 74 82 88 88 87 88 82 71 58 72 88 88 49
23 15 21 31 36 42 52 54 64 66 73 90 100 100 100 99 88 79 71 69 70 68 74 76 73 79 76 73 82 90 81 76 80 95 93 93 93 83 83 71 68 76 75 46
22 23 14 20 31 36 42 49 54 65 69 84 94 95 94 91 89 83 86 78 73 71 71 62 71 71 68 69 79 92 88 79 70 74 78 77 84 73 78 83 88 76 63 42
76 22 23 15 9 32 30 31 43 51 57 65 70 76 92 93 82 85 82 88 80 72 73 76 70 79 85 86 86 89 93 86 77 75 77 82 79 83 80 80 71 73 56 55
97 33 23 23 17 5 31 39 36 48 61 62 64 71 83 88 81 82 72 77 80 87 87 76 77 69 82 83 93 94 96 88 88 75 70 72 73 70 81 82 78 76 66 65
91 81 22 24 23 18 6 28 42 38 50 65 64 61 63 72 75 79 83 85 90 90 87 83 78 87 87 88 83 90 96 96 88 78 87 89 77 69 68 59 54 57 67 75
84 96 25 21 26 25 20 9 21 48 44 56 66 70 64 64 71 80 83 86 88 87 87 84 87 90 87 94 88 91 94 94 94 82 75 95 72 82 82 79 81 79 75 83
94 96 59 21 22 25 27 24 17 13 40 51 54 68 74 73 68 74 82 86 84 90 96 94 97 91 94 90 90 90 93 99 87 84 88 76 62 78 77 80 83 79 80 89
97 95 96 36 19 19 22 27 28 25 20 12 22 57 75 81 81 76 75 80 86 91 100 99 97 89 87 88 89 92 96 94 94 94 99 96 88 84 76 88 94 90 85 82
98 95 96 92 29 25 20 21 23 26 29 27 20 12 66 85 86 80 77 80 84 93 100 98 95 85 81 87 85 92 93 99 98 100 96 68 65 85 95 94 91 87 86 78
96 97 96 95 94 77 59 48 34 28 27 29 29 28 18 51 92 93 80 82 89 93 98 98 90 82 80 92 83 80 79 86 100 100 99 84 65 73 94 95 90 85 85 75
96 96 97 96 95 83 72 78 69 46 36 36 34 32 29 18 76 100 100 94 77 84 84 80 85 83 87 87 94 88 88 76 79 71 70 75 85 97 97 96 88 88 77 79
94 94 96 96 96 96 84 36 28 27 31 23 11 12 22 26 23 84 99 99 96 87 82 88 94 92 88 85 86 91 91 92 91 89 76 76 82 87 88 93 92 92 82 82
95 96 96 97 96 86 28 27 29 21 19 24 11 15 16 27 41 27 100 100 97 98 99 100 98 92 86 87 86 87 90 88 87 87 78 79 81 92 90 84 87 82 82 82
96 96 96 94 37 25 31 24 16 20 43 41 50 65 39 22 32 30 62 97 98 98 99 99 96 92 91 87 88 78 77 77 84 85 86 75 66 72 79 82 79 83 88 78
96 96 87 22 35 41 27 17 31 45 59 82 82 86 74 32 38 35 35 96 97 98 98 98 94 89 89 86 87 74 77 90 87 82 82 80 75 75 74 74 79 79 85 86
96 96 33 36 55 58 35 56 73 85 92 97 86 93 97 40 28 28 48 99 98 98 98 95 87 90 89 84 82 69 78 78 87 90 91 89 98 89 84 79 79 71 79 81
95 69 24 56 79 65 59 75 87 91 96 99 94 96 91 56 50 49 71 96 98 97 98 93 90 93 91 81 65 66 75 80 94 100 98 97 87 90 98 95 99 88 86 81
94 27 41 74 87 85 87 84 90 94 97 98 99 100 91 99 71 78 97 97 98 98 97 100 98 99 84 72 71 74 78 72 78 92 93 85 79 73 86 99 98 94 92 84
90 24 49 78 90 83 80 78 89 94 98 96 97 98 99 97 98 97 98 98 86 84 86 98 99 89 73 72 74 78 79 67 61 47 54 53 58 70 71 89 99 100 95 83
92 31 30 61 87 82 79 92 91 99 98 98 97 98 100 98 97 87 87 82 87 89 93 99 100 91 63 70 75 79 66 62 54 67 63 66 82 90 93 88 99 98 99 91
94 51 29 29 65 82 88 94 97 90 97 97 98 99 98 96 97 87 86 92 89 99 100 97 93 69 68 72 70 64 61 64 78 77 82 80 90 91 92 96 99 99 100 98
92 92 31 43 74 83 85 96 96 94 93 97 96 98 98 98 96 97 96 97 99 96 99 93 93 77 71 75 62 66 86 73 64 82 96 99 99 100 100 99 99 99 100 98
89 88 42 51 77 84 87 88 94 97 94 95 95 96 97 98 97 96 98 95 96 100 100 93 78 79 83 70 71 67 64 65 64 86 96 98 98 98 98 99 99 98 94 97
91 88 60 40 66 68 68 75 78 86 99 97 97 94 96 97 96 95 96 99 100 100 97 82 84 78 78 74 72 67 62 61 62 70 81 86 88 94 97 88 88 97 100 100
84 83 80 53 40 49 37 28 25 62 90 97 100 96 97 96 96 99 100 98 91 75 72 76 85 80 72 76 75 71 70 71 68 67 69 69 67 61 68 84 71 73 92 99
76 77 84 90 90 90 88 52 23 37 97 100 98 97 99 95 99 96 100 89 71 74 69 66 89 79 77 82 82 80 77 75 70 65 63 64 60 57 59 60 63 76 81 88

GFSNW_700_rhum_033.txt.gz
RH
71 42 20 17 30 35 51 53 57 63 70 81 78 94 96 98 91 83 69 70 73 71 80 79 82 83 68 80 82 77 77 76 96 100 92 91 90 87 78 55 67 72 78 39
66 89 24 18 21 32 45 50 58 59 61 81 98 98 99 95 85 78 73 70 68 70 72 78 81 86 83 79 86 81 76 73 83 99 90 90 89 81 80 70 57 61 64 39
71 70 64 22 14 22 32 34 44 55 62 61 69 80 88 86 83 82 78 77 71 70 72 70 71 77 81 78 78 87 85 75 59 62 68 73 81 73 77 79 76 66 54 41
72 69 81 27 22 12 17 28 31 38 54 61 68 68 74 82 76 76 83 88 83 77 70 67 62 70 75 70 66 79 89 82 76 68 70 74 75 76 73 75 70 72 48 48
75 72 67 66 23 21 9 18 37 35 49 64 64 66 78 79 79 75 70 81 84 81 78 76 83 64 67 73 78 82 95 85 81 76 72 74 73 72 77 75 74 71 63 55
76 78 77 89 21 25 21 8 17 42 40 51 68 68 68 73 70 74 70 77 86 88 85 85 84 86 85 85 82 85 90 88 89 77 81 86 81 59 57 56 55 55 62 66
78 82 97 88 31 22 26 23 14 15 44 46 67 74 73 68 71 77 82 85 83 81 84 81 88 93 94 93 90 93 91 96 93 87 78 95 73 84 85 84 77 71 69 82
88 88 97 92 82 26 22 26 26 22 15 37 56 64 73 78 72 75 78 82 83 86 94 92 94 87 91 91 92 89 93 96 89 84 85 69 65 69 79 84 90 86 85 85
95 94 94 97 56 87 25 20 24 27 26 24 15 24 55 71 85 82 78 80 87 84 96 95 90 90 88 92 86 87 92 95 99 95 98 95 91 82 85 93 94 91 87 82
100 97 95 95 97 71 64 27 22 23 24 26 29 24 18 50 78 89 88 83 86 93 94 98 90 91 85 85 92 100 100 100 97 96 96 70 67 88 84 96 97 93 87 84
98 98 96 96 95 95 96 84 78 55 52 55 47 39 32 27 32 100 99 94 96 96 100 96 87 89 83 84 87 81 85 90 100 100 90 87 60 72 86 96 96 93 88 79
97 96 96 98 98 93 93 95 96 94 81 64 44 71 70 37 30 28 98 100 86 91 98 92 89 82 83 81 90 87 89 76 80 72 71 72 82 89 95 93 96 92 91 82
95 96 96 97 97 98 95 93 89 74 54 38 20 12 16 19 26 36 33 94 98 91 96 93 87 82 80 80 79 82 83 84 84 79 67 74 88 90 90 93 90 88 88 87
95 94 95 96 97 97 88 52 36 30 23 13 18 31 38 32 19 27 38 53 100 98 93 94 96 92 81 84 80 82 85 89 87 83 79 79 86 87 85 85 83 84 81 83
96 94 95 96 83 33 46 49 23 17 39 46 53 57 62 64 61 35 25 36 91 99 99 100 100 97 90 86 83 77 73 73 80 76 79 84 84 84 80 74 78 84 81 75
96 95 95 92 32 64 57 36 53 74 82 82 65 71 74 68 80 65 28 30 52 97 98 98 93 82 88 86 79 62 61 66 69 74 80 79 77 74 70 70 70 71 75 83
95 95 96 24 60 79 65 71 88 93 97 92 76 84 84 35 38 38 40 54 47 90 98 98 98 97 97 88 73 60 61 73 75 76 74 74 74 82 97 94 88 78 78 72
96 96 76 29 82 91 92 93 90 93 94 89 87 94 97 92 61 37 52 64 49 96 96 94 99 98 96 87 68 60 62 67 70 70 74 84 85 90 93 96 100 95 93 89
95 95 40 49 85 88 90 82 81 93 96 96 94 97 96 98 100 86 92 73 91 98 96 98 100 98 93 74 66 66 74 73 70 71 80 83 66 50 62 74 83 98 100 100
95 95 40 56 77 85 80 76 87 90 96 96 96 98 97 96 87 74 98 92 97 97 97 95 98 88 75 75 73 72 74 73 69 68 62 61 62 51 57 72 72 86 98 100
95 95 86 36 28 58 76 87 91 98 97 92 96 97 98 99 98 98 98 94 91 86 97 93 95 72 59 64 66 71 75 72 64 59 74 78 69 64 72 81 86 89 89 100
89 92 94 90 28 68 87 93 96 99 100 98 96 98 98 98 96 89 83 78 78 99 98 100 100 65 64 63 65 69 73 66 76 81 72 70 81 93 96 92 91 94 98 100
78 78 90 77 63 82 95 97 99 100 99 98 96 95 98 98 98 98 86 87 97 96 100 96 86 74 74 75 71 65 79 81 66 76 82 95 100 95 98 100 99 99 99 98
72 84 78 78 87 96 95 97 97 98 94 96 94 96 96 98 98 95 97 97 96 98 98 93 82 79 84 84 73 72 69 67 67 71 80 93 98 98 98 98 98 97 96 97
66 83 90 70 92 86 70 52 40 34 36 69 92 93 96 96 97 97 97 96 100 100 97 79 83 80 88 88 77 72 69 69 67 73 84 85 91 93 92 94 94 83 76 80
67 74 78 86 93 95 90 86 86 64 27 80 95 96 96 97 96 97 100 97 94 77 75 74 70 83 93 82 80 79 82 88 81 82 81 70 66 65 68 75 63 76 75 85
57 65 72 75 79 89 97 95 93 91 50 81 97 99 96 96 100 100 98 88 89 80 71 64 75 92 83 83 87 89 90 87 82 75 71 69 67 64 58 49 48 55 61 71

GFSNW_700_rhum_036.txt.gz
RH
75 73 71 61 17 24 33 44 52 49 44 51 56 98 98 98 90 80 70 71 72 68 67 76 80 87 73 85 81 80 74 73 98 100 88 92 91 83 68 57 73 70 64 33
79 73 71 75 34 12 29 37 43 54 52 54 64 70 85 93 85 75 72 71 69 71 73 77 86 84 74 78 78 73 73 72 97 99 92 89 94 87 83 73 58 63 47 34
81 75 71 69 72 22 13 29 31 44 55 53 53 59 64 66 65 64 66 70 70 70 76 67 76 79 87 81 73 82 80 66 57 56 62 67 82 71 78 81 72 67 53 47
83 78 74 68 78 27 18 12 29 30 48 61 62 63 67 76 72 64 77 82 77 72 70 69 66 71 77 78 75 73 83 81 70 62 62 69 72 71 69 78 71 66 56 39
79 78 73 73 79 24 23 14 14 37 33 57 61 63 71 74 76 69 68 78 77 73 74 68 79 66 72 70 71 78 87 84 76 70 64 69 67 66 71 70 72 68 58 43
78 77 78 83 91 26 25 22 10 16 45 39 60 65 64 72 68 71 66 78 83 85 76 75 76 83 77 82 80 81 93 92 80 84 77 77 67 50 53 53 55 55 58 52
80 82 81 94 88 45 20 26 23 14 24 48 55 67 68 69 67 71 79 83 85 81 85 76 80 76 86 90 89 89 88 86 88 94 80 83 57 81 80 73 66 55 48 61
76 84 88 96 90 86 43 22 24 26 19 27 58 67 76 77 72 71 82 83 86 90 90 88 93 92 91 89 89 87 85 91 90 97 83 70 60 79 78 86 85 73 70 78
78 88 92 94 96 67 94 86 71 22 26 28 19 28 54 70 78 79 75 83 90 92 97 90 91 94 89 93 86 86 84 90 95 99 92 71 78 73 81 92 98 93 86 82
83 90 91 93 94 95 92 94 92 69 24 24 26 28 23 25 63 78 84 84 88 96 95 96 89 91 86 96 96 97 96 98 98 95 85 82 77 90 89 97 96 91 87 85
86 87 92 93 92 92 94 96 95 95 92 48 41 35 34 29 24 52 92 98 96 100 100 96 84 90 88 84 83 86 93 96 98 99 96 84 62 88 92 95 95 96 94 85
84 93 91 95 94 91 88 92 93 92 89 90 86 62 55 46 38 30 51 99 88 94 100 94 93 87 85 85 96 81 94 72 84 75 78 65 72 69 78 90 98 98 97 95
92 90 91 94 96 96 97 96 93 85 68 53 86 84 76 77 88 94 84 47 98 96 98 100 97 89 79 77 81 79 76 76 76 71 60 69 85 86 86 89 93 92 90 91
94 92 91 95 96 94 75 62 62 56 39 26 26 39 46 36 32 24 17 44 65 92 98 100 98 94 82 77 72 76 75 77 77 73 68 71 77 82 85 86 87 86 83 79
96 93 91 95 96 29 60 71 44 44 68 74 65 58 59 60 60 60 69 52 35 85 96 98 99 96 85 72 73 70 70 64 70 66 68 74 76 80 80 79 84 84 76 76
93 93 93 95 37 60 76 53 77 96 98 95 75 72 66 58 49 24 51 98 66 47 90 96 97 99 89 90 83 55 62 67 67 72 72 73 75 74 71 70 69 69 68 65
91 88 92 70 30 86 90 96 98 100 96 85 72 79 74 88 69 33 78 55 54 51 45 88 96 98 99 97 80 60 63 62 68 73 76 77 73 72 72 73 88 90 86 76
89 90 93 38 55 88 96 97 90 96 93 92 86 87 92 99 90 46 49 57 57 62 77 69 96 97 97 92 68 70 70 66 63 68 73 74 71 72 81 85 86 86 87 92
80 88 94 37 69 89 90 88 83 96 94 92 93 98 97 97 97 96 92 56 43 88 88 83 94 97 92 73 70 70 65 63 72 78 78 74 72 59 50 50 47 71 79 93
71 82 87 64 32 32 46 65 89 96 96 96 96 97 97 97 85 88 98 86 74 95 75 94 97 98 91 77 69 67 70 70 72 75 74 72 66 56 57 53 56 63 68 70
64 68 78 92 90 39 54 94 93 96 97 96 96 98 98 98 96 90 94 93 98 97 98 98 95 77 70 75 71 69 73 79 82 83 80 76 70 69 69 70 68 68 85 86
54 64 79 83 57 70 94 96 98 100 98 96 96 96 97 97 99 98 100 99 99 100 98 98 98 61 67 69 69 70 74 82 84 89 76 71 67 82 97 99 98 91 90 89
31 66 72 68 84 94 96 96 96 97 98 94 86 93 95 97 98 97 97 98 100 99 100 98 90 81 74 76 76 76 72 81 90 77 80 90 98 100 99 98 99 100 100 98
31 63 82 83 93 93 94 91 78 68 53 38 49 79 96 96 97 97 98 98 96 97 99 96 87 84 88 88 88 75 80 76 75 80 84 85 94 96 96 97 97 97 94 90
30 62 72 71 80 89 93 96 95 92 88 66 51 83 95 97 97 97 98 98 99 99 89 79 80 80 84 98 90 78 74 72 73 81 90 88 87 87 88 84 83 80 85 87
23 32 32 56 65 74 79 87 91 89 85 81 67 90 95 97 97 97 97 96 89 91 83 78 71 83 90 97 86 81 81 83 86 92 94 90 81 80 76 69 64 54 48 57
19 21 23 44 61 62 65 69 74 88 92 92 84 96 97 94 97 96 98 97 95 95 91 72 64 79 99 93 91 90 92 96 96 95 92 80 69 57 45 37 33 31 30 31